Regional Weather Roundup
Issued by NWS

Home | Current Version | Previous Version | Graphics & Text | Print | Product List | Glossary On
Versions: 1 2 3 4 5 6 7 8 9 10 11 12 13 14 15 16 17 18 19 20 21 22 23 24 25 26 27 28 29 30 31 32 33 34 35 36 37 38 39 40 41 42 43 44 45 46 47 48 49 50
000
ASUS45 KTFX 302010
RWRMT
MONTANA REGIONAL WEATHER ROUNDUP
NATIONAL WEATHER SERVICE GREAT FALLS MT
200 PM MDT SAT MAY 30 2015

NOTE: "FAIR" INDICATES FEW OR NO CLOUDS BELOW 12000 FEET WITH NO
SIGNIFICANT WEATHER AND/OR OBSTRUCTIONS TO VISIBILITY.

MTZ001>007-043-302100-
WEST OF THE DIVIDE

CITY           SKY/WX    TMP DP  RH WIND       PRES   REMARKS
KALISPELL      PTCLDY    68  50  52 VRB5      29.98F
MISSOULA       PTSUNNY   69  50  50 SE14      30.00F
BUTTE          CLOUDY    61  39  44 W14G21    30.11S
MULLAN PASS    TSTM      50  45  83 CALM      30.06S VSB 1/2
DEER LODGE       N/A     57  52  82 SE7       30.13R
EUREKA           N/A     66  54  63 W3        29.99R
HAMILTON         N/A     64  50  59 S8        30.04S
LIBBY            N/A     63  54  72 CALM      30.00F
PLAINS           N/A     72  54  53 CALM      29.96F
RONAN            N/A     69  55  60 CALM      30.04F
THOMPSON FALLS   N/A     68  53  58 NE8       29.98F
$$

MTZ008-052>055-302100-
SOUTHWEST MONTANA

CITY           SKY/WX    TMP DP  RH WIND       PRES   REMARKS
BOZEMAN        CLOUDY    68  44  42 SW9       30.05S
DILLON         CLOUDY    64  43  46 VRB5      30.09F
W YELLOWSTONE  PTSUNNY   66  37  34 S18G24    30.16F
$$

MTZ009-010-012-014-046-048-049-054-302100-
EAST SLOPES AND CENTRAL MONTANA

CITY           SKY/WX    TMP DP  RH WIND       PRES   REMARKS
CUT BANK       CLOUDY    60  48  64 CALM      30.01F
GREAT FALLS    LGT RAIN  59  53  80 W6        30.03R
MALMSTROM AFB  CLOUDY    59  52  77 W3        30.03S
HELENA         CLOUDY    65  53  65 VRB3      30.02S
CONRAD           N/A     58  57  96 E3        30.03F
$$

MTZ011-013-016-021-045-047-050-051-302100-
NORTH CENTRAL MONTANA

CITY           SKY/WX    TMP DP  RH WIND       PRES   REMARKS
HAVRE          CLOUDY    65  47  52 SW12      29.98S
LEWISTOWN      TSTM      62  54  74 W9        30.04R
N BAR RANCH    FAIR      64  50  59 S18G28    30.03S
CHINOOK          N/A     66  45  45 E10       29.99S
FORT BENTON      N/A     66  48  52 S3        30.01S
$$

MTZ017>020-022>027-061-062-302100-
NORTHEAST MONTANA

CITY           SKY/WX    TMP DP  RH WIND       PRES   REMARKS
GLASGOW        SUNNY     67  38  34 SE28G33   30.05F
JORDAN           N/A     73  42  32 SE23      30.01F
SIDNEY         PTSUNNY   66  36  32 SE17G25   30.17F
WOLF POINT     PTSUNNY   66  38  35 E17G25    30.11F
MALTA            N/A     71  44  37 E16       29.98F
PLENTYWOOD       N/A     61  30  31 SE22      30.18F
POPLAR           N/A     63  34  34 SE17G24   30.14F
SCOBEY           N/A     63  32  31 E22       30.12F
$$

MTZ028>42-056>058-302100-
SOUTHCENTRAL AND SOUTHEAST MONTANA

CITY           SKY/WX    TMP DP  RH WIND       PRES   REMARKS
BAKER          MOSUNNY   67  39  35 SE25G36   30.14F
BILLINGS       PTSUNNY   72  52  49 E8        30.00F
LIVINGSTON     PTSUNNY   70  53  54 W10       30.03F
MILES CITY     PTSUNNY   69  44  40 SE18G29   30.04F
BIG TIMBER       N/A     63  52  67 S3        30.05R
EKALAKA          N/A     62  41  46 E24       30.09F
LAUREL           N/A     72  53  51 NE5       29.99F
ROUNDUP          N/A     70  49  47 SE8       29.92F
$$

REGIONAL REPORTS...DAKOTAS

CITY           SKY/WX    TMP DP  RH WIND       PRES   REMARKS
WILLISTON      MOSUNNY   61  34  36 SE20G25   30.22F
MINOT          SUNNY     55  29  36 E14G21    30.31F
DICKINSON      SUNNY     59  37  44 S17G31    30.20F
BEACH          FAIR      59  36  41 SE20G30   30.17S
CROSBY         FAIR      59  32  36 SE21G29   30.25F
WATFORD CITY   FAIR      59  37  44 SE24      30.20F
BISMARCK       SUNNY     57  34  41 E12       30.32F
GRAND FORKS    MOSUNNY   54  30  40 NE9       30.36F
FARGO          SUNNY     56  35  45 N9        30.33F
BUFFALO SD       N/A     62  40  44 SE24G31   30.11F
RAPID CITY     SUNNY     62  45  53 SE22G29   30.20F
$$

REGIONAL REPORTS...WYOMING/IDAHO/WASHINGTON

CITY           SKY/WX    TMP DP  RH WIND       PRES   REMARKS
GILLETTE       MOSUNNY   66  52  60 S22G33    30.09F
SHERIDAN       CLOUDY    71  53  52 W5        30.04F
BUFFALO WY     CLOUDY    72  51  47 SE7       30.08F
CODY           PTSUNNY   72  39  30 SE5       30.06F
YELLOWSTONE LA   N/A     62  34  35 W12G22    30.24F
IDAHO FALLS    MOSUNNY   74  48  39 SW9       30.07F
SALMON         CLOUDY    64  46  52 CALM      30.05F
BOISE          CLOUDY    75  49  39 W9        29.98R
SPOKANE        PTSUNNY   77  51  40 SW12      29.89F
$$

REGIONAL REPORTS...ALBERTA

CITY           SKY/WX    TMP DP  RH WIND       PRES   REMARKS
EDMONTON       MOSUNNY   61  41  48 SE18      30.03F
CALGARY        CLOUDY    59  46  63 S12G18    30.00F
LETHBRIDGE     PTSUNNY   63  55  77 SE8       29.98F
MEDICINE HAT   CLOUDY    66  39  37 VRB2      30.00F
$$

REGIONAL REPORTS...SASKATCHEWAN

CITY           SKY/WX    TMP DP  RH WIND       PRES   REMARKS
SWIFT CURRENT  CLOUDY    61  36  39 SE22      30.09F
REGINA         PTSUNNY   57  34  41 SE17G25   30.24F
SASKATOON      PTSUNNY   63  34  34 S14       30.22F
$$



USA.gov is the U.S. government's official web portal to all federal, state and local government web resources and services.